SCP
0 0 0 0 0 0 0 0 0 0 -0 -0 -0 -0 0 0 0 0 0 0 0 1 1 0 0 0 0 0 0 0 0 0 0 0 0 0 0 0 0 0 0 0 0
0 0 0 0 0 0 0 0 -0 -0 0 0 0 0 0 0 0 0 0 1 1 1 1 1 1 0 0 0 0 0 0 0 0 0 0 0 0 0 0 0 0 0 0
0 0 0 0 0 0 0 0 0 0 0 0 0 0 0 0 0 0 0 0 1 1 1 1 1 1 0 0 0 0 0 0 0 0 0 0 0 0 0 0 0 0 0
0 0 0 0 0 0 0 0 0 0 -0 -0 -0 -0 -0 -0 -0 0 0 0 0 1 1 1 1 1 0 0 0 0 0 0 0 0 0 0 0 0 0 0 0 0 0
0 0 0 0 0 0 0 0 0 0 -0 -0 -0 -0 -0 -0 -0 -0 0 0 0 0 1 1 1 1 1 0 0 0 0 0 0 0 0 0 0 0 0 0 0 0 0
0 0 0 0 0 0 0 0 0 0 0 0 0 0 0 0 0 0 0 0 0 0 1 1 1 1 1 0 0 0 0 0 0 0 0 0 0 0 0 0 0 0 0
0 0 0 0 0 0 0 0 0 0 0 0 0 -0 0 0 0 0 0 0 0 0 0 1 1 2 1 1 0 0 0 0 0 0 0 0 0 0 0 0 0 0 0
0 0 0 0 0 0 0 0 0 0 0 0 0 0 0 0 0 0 0 0 0 0 0 0 1 1 1 1 0 0 0 0 0 0 0 0 0 0 0 0 0 0 0
0 0 0 0 0 0 0 0 0 0 0 0 0 0 0 0 0 0 0 0 0 0 0 0 1 1 1 0 0 0 0 0 0 0 0 0 0 0 0 0 0 0 0
0 0 0 0 0 0 0 0 0 0 0 0 0 0 0 0 0 0 0 0 0 0 0 0 0 1 1 0 0 0 0 0 0 0 0 0 0 0 0 0 0 0 0
0 0 0 0 0 0 0 0 0 0 0 0 0 0 0 0 0 0 0 0 0 0 0 0 0 0 0 0 0 0 0 0 0 0 0 0 0 0 0 0 0 0 0
0 0 0 0 0 0 0 0 0 0 0 0 0 0 0 0 0 0 0 0 0 0 0 0 0 1 1 0 0 0 0 0 0 0 0 0 0 0 0 0 -0 -0 0
0 0 0 0 0 0 0 0 0 0 0 0 0 0 0 0 0 0 0 0 0 0 0 0 0 0 0 0 0 0 0 0 0 0 0 0 0 0 0 -0 -0 0 0
0 0 0 0 0 0 0 0 0 0 0 0 0 0 0 0 0 0 0 0 0 0 0 0 0 0 0 0 0 0 0 0 0 0 0 0 0 0 0 0 -0 -0 -0
0 0 0 0 0 0 0 0 0 0 0 0 0 0 0 0 0 0 0 0 0 0 0 0 0 0 0 0 0 0 0 0 0 0 0 0 0 0 0 0 -0 -0 -0
0 0 0 0 0 0 0 0 0 0 0 0 0 0 0 0 0 0 0 0 0 0 0 0 0 0 0 0 0 0 0 0 0 0 0 0 0 0 0 -0 -0 -0 -0
0 0 0 0 0 0 0 0 0 0 0 0 0 0 0 0 0 0 0 0 0 0 0 0 0 0 0 0 0 0 0 0 0 0 0 0 0 0 0 0 0 -0 -0
0 0 0 0 0 0 0 0 0 0 0 0 0 0 0 0 0 0 0 0 0 0 0 0 0 0 0 0 0 0 0 0 0 0 0 0 0 0 0 0 0 0 -0
0 0 0 0 0 0 0 0 0 0 0 0 0 0 0 0 0 0 0 0 0 0 0 0 0 0 0 0 0 0 0 0 0 0 0 0 0 0 0 0 0 0 -0
0 0 0 0 0 0 0 0 0 0 0 0 0 0 0 0 0 0 0 0 0 0 0 0 0 0 0 0 0 0 0 0 0 0 0 0 0 0 0 0 0 0 0
0 0 0 0 0 0 0 0 0 0 0 0 0 0 0 0 0 0 0 0 0 0 0 0 0 0 0 0 0 0 0 0 0 0 0 0 0 0 0 0 0 0 0
0 0 0 0 0 0 0 0 0 0 0 0 0 0 0 0 0 0 0 0 0 0 0 0 0 0 0 0 0 0 0 0 0 0 0 0 0 0 0 0 0 0 0
0 0 0 0 0 0 0 0 0 0 0 0 0 0 0 0 0 0 0 0 0 0 0 0 0 0 0 0 0 0 0 0 0 0 0 0 0 0 0 0 0 0 0
0 0 0 0 0 0 0 0 0 0 0 0 0 0 0 0 0 0 0 0 0 0 0 0 0 0 0 0 0 0 0 0 0 0 0 0 0 0 0 0 0 0 0
0 0 0 0 0 0 0 0 0 0 0 0 0 0 0 0 0 0 0 0 0 0 0 0 0 0 0 0 0 0 0 0 0 0 0 0 0 0 0 0 0 0 0
0 0 0 0 0 0 0 0 0 0 0 0 0 0 0 0 0 0 0 0 0 0 0 0 0 0 0 0 0 0 0 0 0 0 0 0 0 0 0 0 0 0 0
Wind_Speed_500mb
15 19 23 28 30 30 29 27 24 27 28 31 36 45 40 35 30 26 28 28 40 47 49 44 42 35 31 31 26 19 15 15 17 19 16 17 15 14 14 10 15 11 11
1 5 11 13 19 26 30 33 37 41 43 41 40 33 22 26 30 39 42 33 27 38 39 40 44 38 33 33 33 25 18 16 17 18 17 17 17 13 16 11 15 12 11
6 10 12 15 19 22 26 28 26 24 28 31 34 34 29 23 18 26 37 42 45 32 39 46 43 45 38 34 37 30 22 18 18 17 17 18 16 14 17 13 15 14 13
14 17 19 22 22 23 25 24 23 28 32 36 39 38 41 43 41 38 34 35 42 43 34 36 41 42 43 35 36 36 28 22 20 17 18 20 17 14 17 14 13 14 13
16 18 20 23 23 23 23 25 29 35 40 42 44 45 41 43 47 46 40 30 29 39 42 42 43 48 46 39 37 38 34 30 22 17 18 20 16 13 15 15 11 14 13
15 20 23 23 25 25 26 30 33 34 39 42 44 45 44 40 35 29 31 42 47 49 48 39 37 46 44 45 43 41 38 37 29 21 19 21 17 14 13 15 11 14 11
16 22 23 25 27 27 29 30 32 34 35 36 41 44 41 34 19 21 21 26 26 27 32 40 44 48 49 48 54 46 41 41 38 27 21 22 18 16 13 12 11 14 11
17 21 25 27 27 25 26 29 32 35 34 34 38 44 30 38 2 7 14 21 21 27 32 39 46 45 53 53 50 56 48 46 43 34 26 23 20 18 13 13 11 13 8
23 26 27 29 29 29 30 30 29 28 34 30 25 18 16 13 65 24 32 25 27 21 23 34 44 47 51 51 49 51 46 39 44 39 31 26 22 20 16 13 12 11 8
25 26 30 33 36 38 37 36 34 32 35 39 34 25 28 38 35 38 48 46 29 24 18 20 34 42 42 53 50 54 46 44 36 45 35 29 24 21 14 15 13 10 8
27 25 32 38 41 45 46 42 37 34 33 36 34 33 32 33 38 47 61 57 47 34 24 24 28 32 37 45 41 52 47 49 32 39 40 30 25 19 16 15 12 7 8
25 25 30 34 41 47 49 46 43 41 40 39 37 36 38 41 42 35 48 57 56 55 45 38 32 33 39 40 44 46 41 46 29 29 40 32 24 21 23 14 12 10 7
27 28 31 35 39 44 46 45 45 43 42 42 38 38 36 35 36 42 50 58 58 59 53 34 25 25 31 36 43 46 38 40 39 38 39 34 27 25 25 16 19 13 17
31 32 38 39 44 50 52 48 48 48 46 44 44 46 47 45 44 44 45 48 61 61 58 47 21 20 29 33 36 42 43 42 38 40 40 33 31 29 24 22 26 18 20
37 40 42 45 47 49 48 48 48 48 46 47 47 49 47 47 45 45 39 37 44 56 61 56 47 22 25 37 35 33 36 41 44 38 39 30 29 29 29 29 24 16 20
43 43 45 47 50 53 51 49 51 52 52 52 55 59 49 48 49 47 49 51 49 46 54 47 43 41 34 38 33 28 34 41 45 46 38 32 35 38 36 27 25 20 23
42 46 49 51 55 57 54 53 54 54 56 59 58 65 54 46 52 54 55 56 57 58 64 60 46 33 26 32 38 28 28 32 44 48 39 39 40 43 40 29 29 20 26
47 50 52 56 57 58 57 57 58 57 59 63 66 68 61 56 54 54 52 48 52 52 54 59 57 47 38 33 36 38 37 28 40 56 48 46 47 46 39 33 31 27 24
52 54 56 59 61 61 60 60 61 62 66 71 74 69 62 59 60 58 55 51 46 47 53 61 61 53 47 37 36 37 39 31 33 70 60 52 53 48 47 36 33 30 21
58 60 61 63 64 65 65 65 66 68 75 78 79 64 61 62 63 65 64 62 55 50 47 50 52 58 52 38 41 40 44 45 40 64 67 64 59 55 49 39 33 31 22
62 62 64 67 68 71 73 74 75 81 85 87 74 64 64 64 66 68 67 66 64 63 57 55 51 43 57 45 42 41 54 52 59 70 75 67 62 55 55 43 38 33 23
61 64 68 73 79 82 80 78 80 81 79 75 76 78 78 77 78 76 74 75 74 74 66 59 64 58 45 58 39 47 57 58 62 62 73 66 62 59 59 48 33 33 24
61 68 75 81 84 85 84 83 72 68 69 73 74 78 79 79 77 77 74 74 76 81 81 80 83 77 66 52 46 57 60 71 62 69 73 72 62 62 57 47 38 35 28
72 77 79 82 87 85 80 73 67 66 71 75 77 76 78 78 77 77 80 75 81 83 79 80 83 84 72 68 54 57 58 62 72 67 72 74 66 70 60 46 35 36 34
76 77 79 78 74 72 64 55 52 54 61 67 68 70 70 72 73 68 65 74 84 91 81 77 81 74 69 74 63 67 58 83 81 73 74 79 72 69 63 52 41 37 38
74 73 69 67 65 65 59 54 55 59 68 74 79 83 81 81 78 73 72 76 82 85 77 83 77 74 71 73 76 73 70 79 82 72 79 80 70 71 51 53 46 47 39
Wind_Direction_500mb
231 242 251 245 246 250 263 265 270 272 274 277 279 272 273 267 267 278 290 294 285 284 295 296 295 300 303 277 267 274 294 316 322 327 341 317 318 332 315 337 319 337 340
323 302 285 280 265 263 268 272 273 272 274 278 279 283 298 304 300 291 278 285 285 280 276 282 287 293 296 283 266 265 278 298 308 322 333 312 314 324 310 335 328 343 342
28 2 340 309 309 310 306 303 296 285 280 275 272 271 274 286 294 288 284 295 284 282 275 284 275 286 284 279 267 260 267 280 298 316 317 303 308 317 303 321 332 337 341
18 360 348 336 334 327 321 315 302 297 295 296 294 287 271 266 264 273 283 288 301 282 276 278 280 278 277 279 268 260 259 268 284 303 307 298 305 309 307 317 332 328 330
7 356 346 339 336 332 326 319 317 313 310 307 302 297 289 276 271 269 271 280 288 300 290 278 280 270 269 268 269 262 258 260 267 284 288 289 295 296 299 311 327 318 322
356 355 349 342 337 334 333 328 322 317 315 313 310 309 306 303 306 313 298 280 278 277 288 282 276 275 272 265 271 266 258 257 258 263 274 279 285 282 292 305 321 315 315
344 351 350 347 342 335 333 329 324 325 327 328 321 312 312 316 322 306 319 307 275 289 287 267 278 268 272 260 267 266 259 254 255 256 265 273 273 270 281 296 305 308 303
330 343 348 352 349 342 334 328 329 328 329 331 326 326 335 342 322 279 306 327 326 293 275 282 277 271 271 272 264 268 266 255 251 252 252 261 258 261 268 287 302 301 285
323 340 339 345 351 348 340 333 325 319 320 326 327 321 335 305 314 320 311 319 327 306 291 275 279 273 274 273 264 266 266 270 252 248 247 251 248 254 252 278 294 290 260
315 314 329 334 346 345 338 329 323 317 309 312 312 299 264 281 314 320 308 317 327 337 322 302 299 274 270 273 274 262 265 272 265 245 241 242 246 240 240 259 284 275 248
294 311 321 334 335 334 332 326 319 313 310 309 309 304 291 280 275 288 307 307 305 304 301 305 332 289 277 289 274 262 258 269 264 248 242 240 235 244 250 246 271 233 218
285 300 312 314 316 321 323 318 317 316 312 311 311 304 295 292 292 293 296 300 304 305 299 289 314 321 284 278 268 271 256 263 257 249 245 237 229 228 247 236 252 203 198
278 282 299 297 301 311 316 314 311 309 309 309 309 307 300 294 289 282 285 290 300 296 300 292 310 322 303 282 262 271 263 258 264 252 240 235 226 220 240 236 254 198 206
279 286 291 298 309 317 318 315 311 309 307 307 306 302 294 290 290 288 289 295 299 300 298 294 285 349 323 298 275 266 268 263 265 252 229 230 225 220 222 226 256 217 237
280 288 294 303 308 310 311 309 307 306 304 305 306 304 293 288 288 284 278 281 294 300 301 300 296 294 327 311 292 280 273 265 261 244 228 229 227 220 222 222 237 244 265
282 289 294 297 305 311 312 310 307 307 304 303 304 305 292 286 285 280 276 273 271 280 296 290 300 294 286 304 297 282 281 273 246 243 219 226 234 226 223 234 240 239 259
285 291 295 302 308 312 312 307 304 301 296 297 299 299 296 287 281 278 276 275 272 267 275 277 274 285 293 291 291 282 271 256 242 229 212 225 232 226 228 226 239 243 255
290 295 297 300 305 307 307 304 301 297 291 291 294 292 286 290 286 286 280 276 271 268 269 277 274 267 272 290 281 271 267 255 246 224 217 223 227 224 221 226 237 244 250
288 297 299 300 303 305 305 303 300 296 290 290 293 291 276 277 280 282 281 280 275 273 269 268 272 264 265 280 284 258 245 241 253 218 214 215 223 222 228 217 233 244 247
295 295 295 299 303 303 301 300 297 292 290 289 292 285 276 274 273 274 275 280 275 275 274 276 275 265 256 265 269 259 231 231 237 223 214 220 217 219 225 216 229 242 240
288 296 298 299 301 302 301 300 297 293 289 288 285 281 276 272 272 273 272 270 266 270 273 273 275 274 254 253 249 252 235 234 225 232 213 215 222 222 224 220 222 235 234
293 292 295 298 298 298 298 297 294 288 285 284 281 273 269 268 268 267 264 265 261 261 259 265 265 262 262 250 261 242 233 215 212 221 219 217 220 223 232 228 226 235 234
282 286 290 293 294 295 297 298 299 292 285 286 286 285 281 276 273 269 267 266 263 259 257 258 259 258 255 255 243 240 231 236 232 222 216 223 230 230 228 225 220 230 230
284 289 293 294 295 297 299 301 303 298 289 288 286 284 280 277 274 269 269 269 262 261 257 257 251 251 249 249 246 247 239 239 227 225 218 215 231 227 228 221 221 226 227
289 292 295 297 300 302 309 314 310 302 295 292 290 288 285 281 277 274 272 264 261 262 261 256 257 253 248 244 246 233 228 220 221 221 223 216 220 217 222 219 215 214 219
293 296 301 307 310 311 316 310 302 296 292 292 291 288 285 282 281 278 273 268 267 266 259 254 255 251 246 236 235 234 228 218 216 213 213 213 217 214 202 215 216 218 212
Wind_Speed_850mb
15 19 23 28 30 30 29 27 24 27 28 31 36 45 40 35 30 26 28 28 40 47 49 44 42 35 31 31 26 19 15 15 17 19 16 17 15 14 14 10 15 11 11
1 5 11 13 19 26 30 33 37 41 43 41 40 33 22 26 30 39 42 33 27 38 39 40 44 38 33 33 33 25 18 16 17 18 17 17 17 13 16 11 15 12 11
6 10 12 15 19 22 26 28 26 24 28 31 34 34 29 23 18 26 37 42 45 32 39 46 43 45 38 34 37 30 22 18 18 17 17 18 16 14 17 13 15 14 13
14 17 19 22 22 23 25 24 23 28 32 36 39 38 41 43 41 38 34 35 42 43 34 36 41 42 43 35 36 36 28 22 20 17 18 20 17 14 17 14 13 14 13
16 18 20 23 23 23 23 25 29 35 40 42 44 45 41 43 47 46 40 30 29 39 42 42 43 48 46 39 37 38 34 30 22 17 18 20 16 13 15 15 11 14 13
15 20 23 23 25 25 26 30 33 34 39 42 44 45 44 40 35 29 31 42 47 49 48 39 37 46 44 45 43 41 38 37 29 21 19 21 17 14 13 15 11 14 11
16 22 23 25 27 27 29 30 32 34 35 36 41 44 41 34 19 21 21 26 26 27 32 40 44 48 49 48 54 46 41 41 38 27 21 22 18 16 13 12 11 14 11
17 21 25 27 27 25 26 29 32 35 34 34 38 44 30 38 2 7 14 21 21 27 32 39 46 45 53 53 50 56 48 46 43 34 26 23 20 18 13 13 11 13 8
23 26 27 29 29 29 30 30 29 28 34 30 25 18 16 13 65 24 32 25 27 21 23 34 44 47 51 51 49 51 46 39 44 39 31 26 22 20 16 13 12 11 8
25 26 30 33 36 38 37 36 34 32 35 39 34 25 28 38 35 38 48 46 29 24 18 20 34 42 42 53 50 54 46 44 36 45 35 29 24 21 14 15 13 10 8
27 25 32 38 41 45 46 42 37 34 33 36 34 33 32 33 38 47 61 57 47 34 24 24 28 32 37 45 41 52 47 49 32 39 40 30 25 19 16 15 12 7 8
25 25 30 34 41 47 49 46 43 41 40 39 37 36 38 41 42 35 48 57 56 55 45 38 32 33 39 40 44 46 41 46 29 29 40 32 24 21 23 14 12 10 7
27 28 31 35 39 44 46 45 45 43 42 42 38 38 36 35 36 42 50 58 58 59 53 34 25 25 31 36 43 46 38 40 39 38 39 34 27 25 25 16 19 13 17
31 32 38 39 44 50 52 48 48 48 46 44 44 46 47 45 44 44 45 48 61 61 58 47 21 20 29 33 36 42 43 42 38 40 40 33 31 29 24 22 26 18 20
37 40 42 45 47 49 48 48 48 48 46 47 47 49 47 47 45 45 39 37 44 56 61 56 47 22 25 37 35 33 36 41 44 38 39 30 29 29 29 29 24 16 20
43 43 45 47 50 53 51 49 51 52 52 52 55 59 49 48 49 47 49 51 49 46 54 47 43 41 34 38 33 28 34 41 45 46 38 32 35 38 36 27 25 20 23
42 46 49 51 55 57 54 53 54 54 56 59 58 65 54 46 52 54 55 56 57 58 64 60 46 33 26 32 38 28 28 32 44 48 39 39 40 43 40 29 29 20 26
47 50 52 56 57 58 57 57 58 57 59 63 66 68 61 56 54 54 52 48 52 52 54 59 57 47 38 33 36 38 37 28 40 56 48 46 47 46 39 33 31 27 24
52 54 56 59 61 61 60 60 61 62 66 71 74 69 62 59 60 58 55 51 46 47 53 61 61 53 47 37 36 37 39 31 33 70 60 52 53 48 47 36 33 30 21
58 60 61 63 64 65 65 65 66 68 75 78 79 64 61 62 63 65 64 62 55 50 47 50 52 58 52 38 41 40 44 45 40 64 67 64 59 55 49 39 33 31 22
62 62 64 67 68 71 73 74 75 81 85 87 74 64 64 64 66 68 67 66 64 63 57 55 51 43 57 45 42 41 54 52 59 70 75 67 62 55 55 43 38 33 23
61 64 68 73 79 82 80 78 80 81 79 75 76 78 78 77 78 76 74 75 74 74 66 59 64 58 45 58 39 47 57 58 62 62 73 66 62 59 59 48 33 33 24
61 68 75 81 84 85 84 83 72 68 69 73 74 78 79 79 77 77 74 74 76 81 81 80 83 77 66 52 46 57 60 71 62 69 73 72 62 62 57 47 38 35 28
72 77 79 82 87 85 80 73 67 66 71 75 77 76 78 78 77 77 80 75 81 83 79 80 83 84 72 68 54 57 58 62 72 67 72 74 66 70 60 46 35 36 34
76 77 79 78 74 72 64 55 52 54 61 67 68 70 70 72 73 68 65 74 84 91 81 77 81 74 69 74 63 67 58 83 81 73 74 79 72 69 63 52 41 37 38
74 73 69 67 65 65 59 54 55 59 68 74 79 83 81 81 78 73 72 76 82 85 77 83 77 74 71 73 76 73 70 79 82 72 79 80 70 71 51 53 46 47 39
Wind_Direction_850mb
231 242 251 245 246 250 263 265 270 272 274 277 279 272 273 267 267 278 290 294 285 284 295 296 295 300 303 277 267 274 294 316 322 327 341 317 318 332 315 337 319 337 340
323 302 285 280 265 263 268 272 273 272 274 278 279 283 298 304 300 291 278 285 285 280 276 282 287 293 296 283 266 265 278 298 308 322 333 312 314 324 310 335 328 343 342
28 2 340 309 309 310 306 303 296 285 280 275 272 271 274 286 294 288 284 295 284 282 275 284 275 286 284 279 267 260 267 280 298 316 317 303 308 317 303 321 332 337 341
18 360 348 336 334 327 321 315 302 297 295 296 294 287 271 266 264 273 283 288 301 282 276 278 280 278 277 279 268 260 259 268 284 303 307 298 305 309 307 317 332 328 330
7 356 346 339 336 332 326 319 317 313 310 307 302 297 289 276 271 269 271 280 288 300 290 278 280 270 269 268 269 262 258 260 267 284 288 289 295 296 299 311 327 318 322
356 355 349 342 337 334 333 328 322 317 315 313 310 309 306 303 306 313 298 280 278 277 288 282 276 275 272 265 271 266 258 257 258 263 274 279 285 282 292 305 321 315 315
344 351 350 347 342 335 333 329 324 325 327 328 321 312 312 316 322 306 319 307 275 289 287 267 278 268 272 260 267 266 259 254 255 256 265 273 273 270 281 296 305 308 303
330 343 348 352 349 342 334 328 329 328 329 331 326 326 335 342 322 279 306 327 326 293 275 282 277 271 271 272 264 268 266 255 251 252 252 261 258 261 268 287 302 301 285
323 340 339 345 351 348 340 333 325 319 320 326 327 321 335 305 314 320 311 319 327 306 291 275 279 273 274 273 264 266 266 270 252 248 247 251 248 254 252 278 294 290 260
315 314 329 334 346 345 338 329 323 317 309 312 312 299 264 281 314 320 308 317 327 337 322 302 299 274 270 273 274 262 265 272 265 245 241 242 246 240 240 259 284 275 248
294 311 321 334 335 334 332 326 319 313 310 309 309 304 291 280 275 288 307 307 305 304 301 305 332 289 277 289 274 262 258 269 264 248 242 240 235 244 250 246 271 233 218
285 300 312 314 316 321 323 318 317 316 312 311 311 304 295 292 292 293 296 300 304 305 299 289 314 321 284 278 268 271 256 263 257 249 245 237 229 228 247 236 252 203 198
278 282 299 297 301 311 316 314 311 309 309 309 309 307 300 294 289 282 285 290 300 296 300 292 310 322 303 282 262 271 263 258 264 252 240 235 226 220 240 236 254 198 206
279 286 291 298 309 317 318 315 311 309 307 307 306 302 294 290 290 288 289 295 299 300 298 294 285 349 323 298 275 266 268 263 265 252 229 230 225 220 222 226 256 217 237
280 288 294 303 308 310 311 309 307 306 304 305 306 304 293 288 288 284 278 281 294 300 301 300 296 294 327 311 292 280 273 265 261 244 228 229 227 220 222 222 237 244 265
282 289 294 297 305 311 312 310 307 307 304 303 304 305 292 286 285 280 276 273 271 280 296 290 300 294 286 304 297 282 281 273 246 243 219 226 234 226 223 234 240 239 259
285 291 295 302 308 312 312 307 304 301 296 297 299 299 296 287 281 278 276 275 272 267 275 277 274 285 293 291 291 282 271 256 242 229 212 225 232 226 228 226 239 243 255
290 295 297 300 305 307 307 304 301 297 291 291 294 292 286 290 286 286 280 276 271 268 269 277 274 267 272 290 281 271 267 255 246 224 217 223 227 224 221 226 237 244 250
288 297 299 300 303 305 305 303 300 296 290 290 293 291 276 277 280 282 281 280 275 273 269 268 272 264 265 280 284 258 245 241 253 218 214 215 223 222 228 217 233 244 247
295 295 295 299 303 303 301 300 297 292 290 289 292 285 276 274 273 274 275 280 275 275 274 276 275 265 256 265 269 259 231 231 237 223 214 220 217 219 225 216 229 242 240
288 296 298 299 301 302 301 300 297 293 289 288 285 281 276 272 272 273 272 270 266 270 273 273 275 274 254 253 249 252 235 234 225 232 213 215 222 222 224 220 222 235 234
293 292 295 298 298 298 298 297 294 288 285 284 281 273 269 268 268 267 264 265 261 261 259 265 265 262 262 250 261 242 233 215 212 221 219 217 220 223 232 228 226 235 234
282 286 290 293 294 295 297 298 299 292 285 286 286 285 281 276 273 269 267 266 263 259 257 258 259 258 255 255 243 240 231 236 232 222 216 223 230 230 228 225 220 230 230
284 289 293 294 295 297 299 301 303 298 289 288 286 284 280 277 274 269 269 269 262 261 257 257 251 251 249 249 246 247 239 239 227 225 218 215 231 227 228 221 221 226 227
289 292 295 297 300 302 309 314 310 302 295 292 290 288 285 281 277 274 272 264 261 262 261 256 257 253 248 244 246 233 228 220 221 221 223 216 220 217 222 219 215 214 219
293 296 301 307 310 311 316 310 302 296 292 292 291 288 285 282 281 278 273 268 267 266 259 254 255 251 246 236 235 234 228 218 216 213 213 213 217 214 202 215 216 218 212